GW1927 Weather Reports


Display with metric or nautical units.
time (UTC)temp
F
wind
direction
speed
MPH
gust
MPH
rain 1hr
in
rain 24hr
in
rain mn
in
humidity
%
barometer
mb
20260504081558 51 0 0.0 0.0 0.00 0.00 0.00 91 1017.7
20260504044558 55 0 0.0 0.0 0.00 0.00 0.00 82 1018.8
20260504043059 55 0 0.0 1.0 0.00 0.00 0.00 82 1019.0
20260504041559 55 0 0.0 0.0 0.00 0.00 0.00 82 1019.1
20260504040055 56 0 0.0 0.0 0.00 0.00 0.00 80 1019.0
20260504034606 56 0 0.0 1.0 0.00 0.00 0.00 80 1019.1
20260504033054 56 0 0.0 0.0 0.00 0.00 0.00 81 1019.3
20260504031601 57 0 0.0 0.0 0.00 0.00 0.00 81 1019.2
20260504030059 57 0 0.0 0.0 0.00 0.00 0.00 80 1019.1
20260504024601 57 0 0.0 0.0 0.00 0.00 0.00 77 1019.0
20260504023055 58 0 0.0 0.0 0.00 0.00 0.00 79 1018.9
20260504021557 59 0 0.0 0.0 0.00 0.00 0.00 77 1018.7
20260504020115 60 0 0.0 0.0 0.00 0.00 0.00 74 1018.6
20260504014602 60 0 0.0 1.0 0.00 0.00 0.00 76 1018.5
20260504013128 61 0 0.0 0.0 0.00 0.00 0.00 73 1018.3
20260504011559 62 0 0.0 0.0 0.00 0.00 0.00 71 1018.1
20260504010055 63 0 0.0 0.0 0.00 0.00 0.00 68 1018.0
20260504004558 65 0 0.0 0.0 0.00 0.00 0.00 67 1017.9
20260504003057 66 0 0.0 0.0 0.00 0.00 0.00 66 1017.8
20260504001554 68 0 0.0 1.0 0.00 0.00 0.00 65 1017.7
20260504000058 71 0 0.0 0.0 0.00 0.00 0.00 58 1017.7
20260503234555 73 0 0.0 2.0 0.00 0.00 0.00 53 1017.8
20260503233059 75 0 1.0 5.0 0.00 0.00 0.00 43 1017.9
20260503231555 75 252 1.0 6.0 0.00 0.00 0.00 41 1018.0
20260503224606 76 262 2.0 4.0 0.00 0.00 0.00 41 1017.9
20260503223054 76 318 2.0 6.0 0.00 0.00 0.00 40 1017.9
20260503221606 75 168 1.0 8.0 0.00 0.00 0.00 41 1018.0
20260503220057 76 304 3.0 9.0 0.00 0.00 0.00 40 1018.2
20260503214600 76 246 2.0 7.0 0.00 0.00 0.00 41 1018.3
20260503213103 76 290 3.0 9.0 0.00 0.00 0.00 40 1018.6
20260503211559 75 236 2.0 7.0 0.00 0.00 0.00 41 1018.7
20260503210056 75 288 3.0 10.0 0.00 0.00 0.00 43 1018.8
20260503204616 75 243 1.0 9.0 0.00 0.00 0.00 42 1019.1
20260503203057 74 261 4.0 9.0 0.00 0.00 0.00 43 1019.4
20260503201555 75 246 3.0 9.0 0.00 0.00 0.00 40 1019.5
20260503200057 74 304 1.0 6.0 0.00 0.00 0.00 40 1019.8
20260503194557 74 352 1.0 8.0 0.00 0.00 0.00 42 1020.0
20260503193113 74 302 2.0 11.0 0.00 0.00 0.00 40 1020.2
20260503191611 73 86 2.0 9.0 0.00 0.00 0.00 41 1020.6
20260503190055 73 304 2.0 7.0 0.00 0.00 0.00 40 1020.7
20260503184600 73 10 2.0 8.0 0.00 0.00 0.00 41 1020.8
20260503183056 73 290 4.0 10.0 0.00 0.00 0.00 43 1021.1
20260503181554 72 336 3.0 10.0 0.00 0.00 0.00 44 1021.2
20260503174555 72 327 3.0 8.0 0.00 0.00 0.00 44 1021.6
20260503173103 72 355 3.0 8.0 0.00 0.00 0.00 42 1021.9
20260503171555 71 44 3.0 11.0 0.00 0.00 0.00 43 1022.1
20260503170106 71 17 0.0 8.0 0.00 0.00 0.00 45 1022.2
20260503160108 70 276 3.0 9.0 0.00 0.00 0.00 45 1022.5